Wind_Speed
44 43 45 46 48 49 38 30 27 24 23 22 22 24 25 24 24 24 23 22 21 20 22 26 28 32 32 31 28 27 29 28 30 29 28 27 29 33 30 29 30 34 33 32 32 32 33
45 46 48 47 49 48 37 31 28 24 21 20 22 22 23 27 28 24 22 21 20 21 21 21 23 25 28 33 33 30 32 32 34 35 33 34 34 36 35 34 35 35 37 39 36 37 35
46 49 50 50 51 47 37 33 31 27 24 24 24 26 27 26 26 29 28 27 24 22 22 23 25 26 25 28 29 28 31 33 33 37 38 36 37 37 40 42 38 34 34 37 38 38 40
51 51 52 53 51 44 35 32 34 33 29 28 26 27 29 32 31 28 32 32 32 33 28 26 27 30 29 28 28 28 31 33 35 36 40 37 39 43 40 40 38 41 37 35 35 38 38
52 53 54 54 50 38 34 34 34 35 36 33 32 34 32 33 33 34 34 38 36 34 34 35 34 31 33 31 31 32 33 35 36 38 35 37 38 42 40 38 40 34 37 34 33 33 34
53 55 53 51 41 37 36 37 39 39 39 40 41 41 41 38 38 38 38 40 41 41 39 39 40 38 37 35 35 34 36 34 37 41 38 38 38 41 40 36 38 37 39 36 30 17 34
54 55 50 44 41 39 41 40 42 44 44 46 47 48 50 47 46 44 46 45 47 47 41 39 41 46 38 40 40 35 37 38 39 42 40 41 41 40 36 42 43 46 43 37 38 43 44
57 54 46 44 41 40 42 44 45 47 48 51 53 53 54 54 56 55 53 50 51 50 48 41 47 48 46 39 34 35 35 37 40 43 43 40 39 35 42 38 38 42 42 44 41 45 53
57 49 45 45 43 45 46 46 48 52 54 55 57 60 60 58 58 58 54 49 50 50 53 52 54 47 40 37 35 36 37 39 41 38 36 34 34 39 40 41 43 45 45 45 46 46 46
51 49 51 49 52 51 52 53 52 56 63 61 62 63 65 57 58 57 55 50 51 50 55 56 56 47 43 38 36 35 36 37 37 36 35 34 36 39 42 45 46 48 48 49 49 50 54
55 52 53 54 54 59 60 58 58 56 60 63 62 60 60 56 54 53 49 49 47 44 52 53 53 46 43 41 41 39 41 37 35 38 38 38 41 45 48 49 50 53 55 55 58 56 57
58 60 61 63 64 62 63 66 59 64 66 63 58 57 57 55 53 50 48 47 42 46 49 46 44 43 42 45 44 49 45 45 44 43 43 41 42 46 49 51 51 52 54 54 56 56 58
67 67 66 69 71 71 66 64 64 68 68 67 64 60 58 58 55 49 43 44 43 49 45 47 47 40 48 47 48 53 54 53 53 52 48 46 43 50 51 52 53 55 53 53 54 55 59
72 70 72 76 74 71 72 67 68 69 70 65 62 63 59 53 49 46 45 42 49 48 47 51 52 53 48 50 52 56 58 59 57 59 54 53 45 41 38 39 53 57 49 55 47 37 33
74 77 73 68 72 74 71 68 69 74 64 58 60 57 53 48 48 44 48 56 59 59 56 54 52 57 56 56 61 60 61 59 56 51 61 61 61 55 52 38 51 57 57 42 39 42 42
64 69 75 75 72 72 71 72 68 59 56 54 50 43 53 54 50 61 65 66 62 58 58 61 60 61 64 63 65 64 60 61 61 59 61 63 61 63 63 58 49 47 48 45 43 39 42
73 74 71 68 68 65 66 64 62 61 58 55 56 65 62 62 63 63 63 61 59 59 63 67 68 69 70 69 69 67 64 62 63 64 66 70 71 71 66 64 62 39 42 38 39 33 46
70 66 64 64 57 53 57 57 58 63 65 70 68 68 67 66 66 69 66 63 62 63 68 72 72 73 73 69 68 69 70 69 66 69 69 63 66 70 70 66 60 50 49 44 38 43 45
65 66 67 62 61 62 63 63 66 72 71 68 73 73 70 70 71 72 72 72 72 72 72 73 73 74 72 73 76 76 73 69 68 68 67 62 65 66 66 63 54 53 54 57 55 57 45
63 67 68 70 71 73 72 69 71 75 74 72 73 74 76 76 77 78 77 77 77 75 76 77 78 77 76 75 73 74 74 71 69 67 61 60 62 60 58 55 49 47 46 49 53 54 55
65 66 68 70 71 71 75 76 78 79 81 80 80 78 79 79 78 80 82 84 83 80 77 76 76 75 71 69 70 71 60 50 46 52 51 47 51 52 50 49 46 45 48 51 50 53 59
66 67 71 73 75 76 78 78 80 81 80 80 80 82 83 85 87 85 83 82 79 76 74 72 72 69 67 64 56 46 46 41 40 40 42 42 47 44 44 40 37 39 39 42 48 52 49
70 72 75 77 77 78 78 80 80 76 76 78 79 80 82 82 81 78 74 71 68 66 61 53 50 48 53 45 37 46 41 31 38 36 33 39 41 34 34 27 28 33 26 26 28 31 36
77 77 79 76 76 75 79 79 79 78 77 77 77 76 75 74 72 70 69 65 63 58 52 46 40 38 36 46 48 50 48 42 38 36 36 33 34 36 35 32 34 26 28 28 28 28 27
74 74 77 77 79 81 84 84 77 80 76 75 67 65 65 64 61 58 54 55 53 50 46 45 45 38 37 42 46 45 45 42 36 33 35 37 33 32 35 33 32 24 26 20 26 24 28
72 74 75 76 79 80 80 77 70 66 63 57 51 51 51 50 41 39 39 37 35 35 36 40 45 48 42 35 38 34 30 30 26 23 23 26 28 32 32 32 29 22 22 23 26 28 28
71 70 70 71 71 70 66 62 58 54 53 51 48 47 49 50 39 42 39 32 30 27 26 23 27 40 40 42 36 35 29 31 29 25 20 18 23 27 20 26 26 23 25 30 29 23 27
56 54 51 49 47 44 43 44 46 47 45 43 42 43 46 49 46 45 40 34 29 27 25 25 24 17 19 25 27 30 27 26 29 27 30 29 28 24 28 27 26 27 38 30 12 31 32
44 45 45 43 40 39 31 25 24 25 25 28 27 33 35 32 26 32 36 40 38 35 30 24 23 20 25 18 24 25 26 22 14 22 21 24 25 26 28 25 24 31 32 41 39 38 33
Wind_Direction
278 286 289 291 297 307 301 285 283 283 286 289 293 296 294 290 289 296 299 298 299 302 302 305 312 314 312 309 309 312 311 308 306 302 300 298 300 300 297 289 285 288 287 287 285 279 277
282 283 288 289 296 300 293 284 281 281 284 288 291 294 297 301 300 296 292 292 295 297 296 297 299 295 302 305 304 305 304 305 305 301 301 301 302 304 300 298 293 287 283 284 283 282 277
278 280 284 286 295 297 286 281 275 272 278 284 288 293 296 293 293 293 290 288 291 288 286 287 289 293 292 291 293 293 293 290 290 293 293 293 295 296 300 301 297 291 285 278 281 282 277
275 279 282 287 293 291 282 281 273 271 277 282 290 298 303 300 294 290 293 298 299 296 290 289 292 295 291 291 288 291 291 289 288 286 290 294 294 294 295 296 294 292 284 283 280 280 280
271 275 283 288 291 281 276 276 280 278 278 280 284 293 297 295 297 299 292 284 285 289 294 294 292 294 290 292 289 293 293 284 282 284 286 288 288 289 289 292 289 287 286 282 282 278 275
270 276 283 286 283 274 274 278 277 277 278 279 283 287 295 295 292 294 293 293 293 295 298 296 296 295 295 290 296 291 284 280 278 278 281 282 281 284 287 289 284 277 272 273 260 266 269
270 276 281 277 277 276 274 279 281 276 276 278 281 286 291 295 293 292 293 295 299 299 299 298 298 298 293 293 299 285 277 277 277 276 281 282 281 285 291 282 290 289 290 280 266 267 260
271 275 274 270 273 276 274 278 281 282 283 284 283 286 289 291 292 294 294 295 296 294 295 300 298 297 298 295 290 283 279 276 275 277 280 282 287 290 284 292 289 288 282 278 275 265 265
271 272 272 271 270 273 276 279 279 282 282 282 285 288 288 287 289 291 293 293 293 293 293 295 297 297 295 290 284 280 281 279 278 279 280 288 294 291 297 295 292 287 282 282 280 276 273
269 270 274 272 271 275 276 278 280 283 279 280 284 284 288 290 289 291 290 293 294 296 294 295 296 299 297 290 284 280 278 277 280 282 285 289 292 294 292 294 294 288 288 287 286 286 286
269 270 273 276 276 269 277 281 284 282 280 283 285 286 287 289 289 288 290 292 294 295 291 296 300 299 297 295 290 281 283 279 283 285 283 286 290 295 296 297 291 288 288 289 289 289 288
267 270 271 277 276 276 278 282 278 281 277 279 281 282 283 287 287 290 290 290 292 289 287 290 293 289 297 293 289 287 283 278 281 281 284 285 289 293 295 293 294 292 289 288 288 287 285
261 265 271 273 272 275 275 275 274 275 275 277 281 278 280 284 286 287 283 287 284 285 290 291 290 292 301 295 291 288 287 283 285 287 286 286 289 295 291 288 287 288 290 291 287 283 289
263 265 269 269 273 271 274 274 270 271 273 276 278 279 281 282 284 280 280 283 285 290 289 290 290 291 293 290 286 286 286 284 286 288 282 286 278 288 285 283 280 278 283 285 286 281 283
263 264 269 270 272 269 272 271 273 271 273 274 271 273 280 280 280 281 284 286 290 292 287 288 286 281 286 285 281 281 283 284 288 286 284 281 277 277 276 264 270 277 275 268 265 271 272
263 265 268 266 268 265 267 265 268 268 269 272 272 280 282 285 277 284 291 295 290 287 281 277 277 278 279 279 280 282 283 286 288 286 285 283 277 282 277 271 269 273 279 267 257 260 269
265 265 265 262 261 263 265 269 270 268 266 266 269 286 290 284 282 283 285 283 283 280 278 279 279 279 279 280 280 280 280 281 283 276 274 277 276 279 277 275 278 263 271 266 273 260 257
263 264 259 255 262 268 267 268 270 277 278 287 292 289 286 280 278 280 280 278 279 279 280 280 281 281 281 282 280 280 281 283 278 274 274 274 273 275 276 276 275 264 255 254 251 264 257
259 257 256 259 262 264 267 269 271 283 281 279 279 280 281 281 279 278 277 276 278 278 277 278 279 280 282 281 280 281 280 280 274 272 273 274 271 273 276 276 277 268 250 248 254 250 253
258 261 262 264 267 273 279 282 282 281 280 279 280 281 281 280 279 279 279 280 281 282 282 281 281 279 278 277 277 277 276 274 273 275 276 274 272 271 273 274 272 266 259 251 250 244 242
264 269 271 273 276 279 279 277 278 279 279 279 280 281 281 282 281 282 281 283 283 282 278 277 274 274 274 278 277 277 279 274 265 272 271 265 270 272 275 275 272 266 257 258 249 244 247
270 274 276 274 275 274 274 274 274 275 277 280 282 282 283 282 282 282 282 281 279 277 273 270 269 270 270 272 272 274 261 261 262 262 265 263 272 276 275 276 272 268 262 259 255 254 253
265 268 269 271 273 274 273 276 278 282 285 287 286 284 283 284 280 277 277 273 272 272 273 272 275 276 273 267 250 248 261 257 263 264 253 256 267 271 276 276 274 271 285 275 267 264 264
267 269 271 274 278 282 283 285 286 287 286 284 281 279 278 277 274 273 271 270 270 270 266 263 264 264 256 244 246 248 263 265 262 263 259 260 255 256 261 270 265 273 283 280 280 276 270
276 281 281 282 284 286 288 288 286 287 282 280 277 274 272 272 274 276 275 272 270 269 268 266 259 248 255 246 249 253 261 264 269 268 261 256 258 263 263 264 268 269 274 274 266 264 258
284 284 284 285 287 288 288 285 279 278 276 275 277 277 277 276 279 276 276 280 274 268 264 258 250 244 247 254 253 258 246 250 264 264 272 265 260 254 258 261 267 278 272 269 267 278 257
286 288 288 286 285 281 278 277 277 277 278 278 278 278 278 278 277 270 268 267 271 267 261 256 258 252 251 251 251 251 248 244 254 254 256 254 259 248 254 268 267 280 269 272 272 263 285
287 284 282 281 279 280 281 282 280 280 279 280 279 279 277 275 274 269 263 255 251 253 256 250 250 243 244 249 244 244 254 250 254 255 249 260 257 253 256 261 267 276 253 263 232 281 282
281 280 279 279 279 280 282 279 285 286 286 288 288 284 280 279 286 272 263 255 253 252 248 246 240 234 214 227 232 232 201 229 225 251 246 249 247 260 255 264 273 278 282 281 284 270 270
Height
5834 5835 5834 5833 5832 5831 5828 5827 5827 5826 5825 5825 5824 5824 5823 5821 5819 5820 5820 5819 5819 5818 5817 5816 5815 5815 5813 5811 5808 5810 5807 5806 5805 5803 5802 5800 5800 5798 5797 5796 5794 5791 5789 5788 5787 5784 5784
5828 5828 5827 5826 5826 5825 5823 5822 5823 5822 5821 5821 5821 5819 5819 5819 5817 5816 5814 5814 5813 5813 5812 5810 5810 5810 5810 5809 5806 5804 5803 5800 5799 5797 5795 5794 5793 5792 5790 5789 5787 5786 5784 5782 5781 5778 5777
5820 5820 5820 5819 5819 5817 5816 5816 5817 5816 5816 5816 5816 5815 5813 5812 5811 5812 5812 5810 5808 5806 5804 5805 5804 5803 5803 5802 5799 5799 5798 5794 5791 5791 5789 5787 5786 5783 5782 5781 5779 5778 5775 5774 5774 5772 5769
5811 5812 5811 5810 5810 5809 5809 5809 5810 5811 5811 5810 5810 5810 5809 5808 5806 5804 5804 5804 5803 5803 5800 5798 5796 5795 5796 5795 5793 5793 5790 5789 5786 5782 5783 5779 5778 5776 5774 5773 5772 5768 5766 5765 5766 5761 5760
5802 5803 5803 5803 5802 5802 5801 5802 5804 5805 5805 5804 5803 5803 5802 5802 5800 5798 5797 5797 5795 5794 5794 5791 5790 5788 5785 5786 5785 5785 5782 5780 5778 5776 5772 5772 5769 5767 5764 5763 5762 5761 5758 5757 5756 5752 5752
5792 5794 5795 5794 5794 5795 5794 5795 5796 5796 5797 5796 5795 5794 5794 5794 5792 5791 5790 5788 5786 5783 5783 5781 5779 5779 5778 5776 5775 5775 5771 5770 5769 5768 5764 5762 5758 5757 5756 5754 5752 5752 5749 5750 5748 5750 5742
5783 5785 5786 5786 5787 5786 5787 5787 5786 5786 5786 5786 5786 5784 5783 5783 5784 5781 5781 5779 5777 5775 5774 5773 5772 5766 5768 5767 5765 5764 5762 5761 5759 5758 5757 5752 5749 5750 5749 5743 5744 5743 5741 5742 5743 5741 5734
5772 5774 5776 5777 5778 5778 5778 5777 5777 5777 5777 5777 5776 5775 5774 5773 5773 5771 5768 5767 5767 5765 5767 5763 5759 5758 5758 5756 5756 5753 5754 5750 5749 5749 5745 5744 5741 5741 5736 5737 5735 5735 5732 5731 5732 5731 5726
5762 5763 5765 5766 5767 5769 5769 5769 5770 5768 5766 5766 5765 5765 5764 5763 5761 5759 5759 5755 5753 5751 5752 5753 5750 5747 5749 5747 5745 5744 5743 5740 5739 5738 5736 5734 5735 5730 5729 5728 5726 5725 5721 5722 5719 5718 5717
5751 5752 5753 5754 5755 5757 5757 5758 5759 5757 5754 5753 5753 5753 5752 5751 5752 5749 5747 5745 5742 5740 5739 5737 5737 5737 5737 5736 5737 5735 5732 5732 5730 5727 5726 5726 5726 5724 5723 5720 5719 5715 5712 5710 5709 5707 5705
5739 5740 5740 5741 5742 5744 5745 5744 5745 5745 5743 5741 5740 5740 5740 5740 5738 5737 5736 5735 5733 5731 5726 5724 5727 5727 5725 5726 5725 5725 5724 5720 5719 5717 5716 5718 5716 5712 5710 5711 5709 5708 5704 5700 5697 5694 5693
5727 5728 5728 5729 5731 5732 5731 5732 5731 5730 5729 5728 5728 5729 5728 5728 5726 5727 5723 5723 5723 5721 5714 5717 5718 5717 5718 5716 5714 5709 5714 5711 5708 5704 5703 5705 5703 5701 5701 5700 5696 5694 5691 5689 5685 5681 5677
5714 5715 5716 5717 5717 5718 5718 5718 5718 5717 5717 5716 5717 5716 5716 5715 5714 5714 5712 5713 5713 5707 5710 5708 5707 5709 5710 5706 5705 5699 5699 5700 5697 5691 5691 5691 5693 5688 5687 5686 5683 5680 5677 5676 5672 5671 5667
5701 5701 5702 5702 5703 5703 5703 5702 5703 5703 5704 5703 5703 5703 5703 5703 5703 5702 5702 5703 5700 5703 5700 5697 5694 5697 5698 5694 5692 5688 5686 5687 5688 5681 5675 5676 5682 5679 5678 5674 5672 5670 5667 5662 5658 5662 5663
5687 5688 5687 5687 5687 5687 5689 5689 5690 5691 5690 5690 5689 5691 5693 5691 5691 5691 5692 5691 5691 5689 5683 5683 5684 5680 5683 5680 5674 5674 5675 5674 5674 5674 5662 5661 5661 5671 5665 5662 5656 5657 5656 5660 5652 5649 5649
5671 5672 5673 5673 5674 5674 5674 5675 5676 5676 5675 5676 5676 5679 5682 5676 5676 5675 5675 5676 5673 5672 5669 5667 5666 5667 5663 5665 5659 5660 5663 5663 5659 5655 5648 5646 5638 5654 5650 5651 5646 5642 5644 5641 5642 5638 5634
5656 5657 5658 5659 5659 5660 5661 5661 5662 5662 5662 5662 5662 5664 5665 5662 5659 5657 5657 5656 5659 5659 5653 5650 5649 5646 5646 5647 5644 5644 5645 5650 5648 5638 5634 5631 5625 5628 5631 5637 5635 5638 5628 5626 5626 5627 5625
5643 5644 5646 5646 5646 5647 5647 5647 5647 5648 5648 5646 5645 5645 5646 5642 5642 5639 5643 5642 5644 5642 5638 5633 5632 5626 5625 5627 5624 5624 5625 5629 5631 5622 5616 5619 5607 5603 5609 5615 5620 5619 5618 5615 5611 5610 5612
5628 5630 5631 5632 5632 5633 5632 5632 5631 5630 5629 5628 5628 5628 5627 5625 5624 5623 5625 5625 5624 5622 5621 5617 5613 5608 5609 5603 5598 5603 5606 5614 5608 5603 5601 5600 5594 5587 5587 5595 5604 5601 5599 5596 5599 5597 5594
5615 5617 5618 5618 5618 5618 5617 5615 5614 5612 5610 5609 5608 5608 5609 5607 5607 5603 5602 5605 5604 5602 5598 5595 5592 5590 5586 5582 5582 5576 5578 5584 5587 5584 5584 5580 5578 5577 5575 5577 5584 5582 5581 5582 5582 5582 5582
5602 5603 5604 5604 5604 5602 5602 5600 5598 5597 5594 5592 5589 5588 5585 5586 5588 5583 5581 5580 5581 5581 5577 5574 5570 5569 5566 5562 5560 5560 5562 5564 5566 5568 5568 5567 5562 5564 5565 5564 5565 5567 5567 5568 5568 5570 5569
5588 5587 5587 5586 5585 5584 5584 5582 5581 5578 5575 5573 5569 5568 5564 5568 5563 5559 5562 5558 5553 5554 5553 5555 5548 5549 5549 5547 5548 5546 5546 5547 5550 5557 5555 5556 5552 5553 5553 5553 5552 5551 5554 5556 5558 5561 5559
5569 5568 5568 5568 5567 5566 5564 5564 5563 5560 5556 5550 5544 5541 5534 5543 5537 5534 5541 5535 5533 5533 5535 5532 5532 5531 5533 5534 5534 5534 5534 5538 5539 5542 5544 5545 5544 5543 5544 5545 5544 5541 5549 5546 5546 5548 5548
5552 5551 5551 5549 5549 5548 5546 5544 5541 5536 5531 5529 5521 5517 5510 5513 5509 5514 5518 5517 5515 5516 5516 5519 5521 5520 5522 5520 5521 5523 5524 5528 5529 5533 5534 5535 5536 5537 5536 5537 5534 5539 5537 5536 5537 5539 5540
5535 5534 5534 5533 5530 5527 5524 5520 5515 5512 5508 5505 5499 5496 5492 5491 5491 5498 5497 5495 5500 5501 5500 5503 5511 5509 5506 5508 5511 5512 5517 5517 5523 5523 5524 5525 5527 5527 5526 5527 5528 5531 5530 5531 5529 5531 5529
5517 5516 5515 5512 5510 5506 5501 5499 5494 5489 5488 5487 5485 5481 5476 5474 5487 5480 5481 5486 5485 5486 5488 5491 5492 5492 5498 5500 5501 5503 5506 5510 5512 5514 5515 5516 5517 5517 5518 5519 5520 5524 5522 5522 5522 5524 5522
5498 5495 5493 5490 5487 5484 5481 5479 5476 5475 5473 5473 5473 5470 5464 5460 5478 5470 5470 5473 5476 5477 5477 5479 5480 5484 5485 5489 5492 5495 5499 5503 5504 5507 5510 5509 5506 5507 5510 5511 5513 5516 5516 5513 5515 5518 5517
5477 5475 5474 5472 5470 5467 5465 5464 5463 5462 5460 5459 5461 5458 5455 5450 5458 5456 5459 5461 5465 5466 5469 5473 5473 5476 5480 5482 5485 5489 5493 5494 5495 5499 5501 5503 5504 5506 5506 5507 5507 5508 5502 5505 5507 5505 5510
5467 5464 5461 5460 5458 5456 5456 5456 5454 5453 5451 5451 5452 5448 5445 5442 5448 5442 5445 5449 5453 5457 5461 5463 5466 5470 5469 5472 5473 5475 5480 5485 5487 5490 5493 5494 5498 5499 5501 5502 5503 5500 5501 5500 5499 5497 5499